TimeAKDT,TemperatureF,Dew PointF,Humidity,Sea Level PressureIn,VisibilityMPH,Wind Direction,Wind SpeedMPH,Gust SpeedMPH,PrecipitationIn,Events,Conditions,WindDirDegrees,DateUTC
12:16 AM,33.8,24.8,70,29.93,10.0,Calm,Calm,-,N/A,,Overcast,0,2013-09-15 08:16:00
12:36 AM,35.6,23.0,60,29.93,10.0,NNW,5.8,-,N/A,,Mostly Cloudy,330,2013-09-15 08:36:00
12:56 AM,35.6,19.4,52,29.93,10.0,NNW,6.9,16.1,N/A,,Scattered Clouds,340,2013-09-15 08:56:00
1:16 AM,35.6,19.4,52,29.94,10.0,NW,10.4,-,N/A,,Scattered Clouds,320,2013-09-15 09:16:00
1:36 AM,35.6,17.6,48,29.94,10.0,NW,9.2,-,N/A,,Mostly Cloudy,320,2013-09-15 09:36:00
1:56 AM,35.6,17.6,48,29.95,10.0,WNW,13.8,18.4,N/A,,Overcast,290,2013-09-15 09:56:00
2:16 AM,37.4,17.6,45,29.95,10.0,WNW,10.4,21.9,N/A,,Scattered Clouds,300,2013-09-15 10:16:00
2:36 AM,35.6,17.6,48,29.95,10.0,West,12.7,-,N/A,,Scattered Clouds,280,2013-09-15 10:36:00
2:56 AM,35.6,17.6,48,29.96,10.0,West,4.6,-,N/A,,Clear,280,2013-09-15 10:56:00
3:16 AM,33.8,17.6,52,29.96,10.0,NW,6.9,-,N/A,,Clear,310,2013-09-15 11:16:00
3:36 AM,33.8,17.6,52,29.97,10.0,WNW,4.6,-,N/A,,Scattered Clouds,290,2013-09-15 11:36:00
3:56 AM,32.0,17.6,55,29.98,10.0,WNW,5.8,-,N/A,,Partly Cloudy,290,2013-09-15 11:56:00
4:16 AM,32.0,17.6,55,29.98,10.0,WNW,5.8,-,N/A,,Clear,290,2013-09-15 12:16:00
4:36 AM,30.2,19.4,64,29.99,10.0,WNW,5.8,-,N/A,,Clear,290,2013-09-15 12:36:00
4:56 AM,30.2,17.6,60,29.99,10.0,West,6.9,-,N/A,,Clear,280,2013-09-15 12:56:00
5:16 AM,30.2,15.8,55,29.99,10.0,WNW,6.9,-,N/A,,Clear,300,2013-09-15 13:16:00
5:36 AM,30.2,17.6,60,29.99,10.0,WNW,8.1,-,N/A,,Clear,300,2013-09-15 13:36:00
5:56 AM,32.0,17.6,55,30.00,10.0,Calm,Calm,-,N/A,,Clear,0,2013-09-15 13:56:00
6:16 AM,32.0,15.8,51,30.00,10.0,NW,6.9,-,N/A,,Clear,320,2013-09-15 14:16:00
6:36 AM,30.2,17.6,60,30.01,10.0,North,5.8,-,N/A,,Clear,360,2013-09-15 14:36:00
6:56 AM,30.2,17.6,60,30.02,10.0,South,3.5,-,N/A,,Clear,170,2013-09-15 14:56:00
7:16 AM,32.0,15.8,51,30.02,10.0,NW,3.5,-,N/A,,Clear,310,2013-09-15 15:16:00
7:36 AM,30.2,19.4,64,30.03,10.0,Calm,Calm,-,N/A,,Clear,0,2013-09-15 15:36:00
7:56 AM,32.0,19.4,60,30.04,10.0,Calm,Calm,-,N/A,,Clear,0,2013-09-15 15:56:00
8:16 AM,30.2,19.4,64,30.04,10.0,South,4.6,-,N/A,,Clear,190,2013-09-15 16:16:00
8:36 AM,33.8,19.4,56,30.05,10.0,Calm,Calm,-,N/A,,Clear,0,2013-09-15 16:36:00
8:56 AM,33.8,19.4,56,30.05,10.0,Calm,Calm,-,N/A,,Clear,0,2013-09-15 16:56:00
9:16 AM,35.6,19.4,52,30.06,10.0,East,4.6,-,N/A,,Clear,90,2013-09-15 17:16:00
9:36 AM,35.6,19.4,52,30.07,10.0,SE,4.6,-,N/A,,Clear,140,2013-09-15 17:36:00
9:56 AM,35.6,19.4,52,30.07,10.0,NE,3.5,-,N/A,,Clear,50,2013-09-15 17:56:00
10:16 AM,37.4,15.8,41,30.07,10.0,North,6.9,-,N/A,,Clear,10,2013-09-15 18:16:00
10:36 AM,37.4,17.6,45,30.07,10.0,NNE,9.2,-,N/A,,Clear,20,2013-09-15 18:36:00
10:56 AM,37.4,15.8,41,30.08,10.0,NNE,6.9,-,N/A,,Clear,20,2013-09-15 18:56:00
11:16 AM,37.4,15.8,41,30.08,10.0,North,8.1,-,N/A,,Clear,360,2013-09-15 19:16:00
11:36 AM,39.2,17.6,42,30.08,10.0,North,9.2,-,N/A,,Clear,10,2013-09-15 19:36:00
11:56 AM,39.2,15.8,39,30.08,10.0,North,6.9,-,N/A,,Clear,360,2013-09-15 19:56:00
12:16 PM,39.2,15.8,39,30.08,10.0,NNE,8.1,-,N/A,,Clear,20,2013-09-15 20:16:00
12:36 PM,39.2,15.8,39,30.08,10.0,NNW,8.1,-,N/A,,Partly Cloudy,340,2013-09-15 20:36:00
12:56 PM,39.2,15.8,39,30.08,10.0,NW,8.1,-,N/A,,Scattered Clouds,310,2013-09-15 20:56:00
1:16 PM,39.2,15.8,39,30.08,10.0,NNW,4.6,-,N/A,,Partly Cloudy,340,2013-09-15 21:16:00
1:36 PM,41.0,15.8,36,30.09,10.0,NNE,6.9,-,N/A,,Clear,20,2013-09-15 21:36:00
1:56 PM,42.8,15.8,34,30.09,10.0,NE,5.8,-,N/A,,Clear,40,2013-09-15 21:56:00
2:16 PM,42.8,15.8,34,30.08,10.0,NNE,4.6,-,N/A,,Scattered Clouds,30,2013-09-15 22:16:00
2:36 PM,42.8,15.8,34,30.08,10.0,NE,9.2,-,N/A,,Mostly Cloudy,40,2013-09-15 22:36:00
2:56 PM,42.8,15.8,34,30.08,10.0,NE,6.9,-,N/A,,Mostly Cloudy,40,2013-09-15 22:56:00
3:16 PM,42.8,15.8,34,30.08,10.0,NE,6.9,-,N/A,,Overcast,40,2013-09-15 23:16:00
3:36 PM,39.2,17.6,42,30.08,10.0,NE,8.1,-,N/A,,Overcast,50,2013-09-15 23:36:00
3:56 PM,41.0,15.8,36,30.08,10.0,NE,5.8,-,N/A,,Overcast,40,2013-09-15 23:56:00
4:16 PM,42.8,17.6,36,30.08,10.0,NNE,4.6,-,N/A,,Overcast,30,2013-09-16 00:16:00
4:36 PM,41.0,17.6,39,30.07,10.0,ENE,9.2,-,N/A,,Overcast,60,2013-09-16 00:36:00
4:56 PM,39.2,15.8,39,30.07,10.0,ENE,9.2,-,N/A,,Overcast,60,2013-09-16 00:56:00
5:16 PM,39.2,15.8,39,30.07,10.0,ENE,8.1,-,N/A,,Overcast,60,2013-09-16 01:16:00
5:36 PM,39.2,15.8,39,30.08,10.0,NE,5.8,-,N/A,,Overcast,40,2013-09-16 01:36:00
5:56 PM,39.2,17.6,42,30.08,10.0,NE,6.9,-,N/A,,Mostly Cloudy,40,2013-09-16 01:56:00
6:16 PM,39.2,17.6,42,30.08,10.0,NNE,8.1,-,N/A,,Partly Cloudy,30,2013-09-16 02:16:00
6:36 PM,39.2,17.6,42,30.08,10.0,NNE,8.1,-,N/A,,Clear,20,2013-09-16 02:36:00
6:56 PM,37.4,15.8,41,30.08,10.0,NE,8.1,-,N/A,,Clear,40,2013-09-16 02:56:00
7:16 PM,37.4,17.6,45,30.08,10.0,NE,6.9,-,N/A,,Clear,40,2013-09-16 03:16:00
7:36 PM,35.6,17.6,48,30.07,10.0,North,6.9,-,N/A,,Clear,10,2013-09-16 03:36:00
7:56 PM,35.6,17.6,48,30.07,10.0,North,8.1,-,N/A,,Clear,350,2013-09-16 03:56:00
8:16 PM,33.8,17.6,52,30.07,10.0,North,8.1,-,N/A,,Clear,10,2013-09-16 04:16:00
8:36 PM,33.8,17.6,52,30.07,10.0,NNE,10.4,-,N/A,,Clear,20,2013-09-16 04:36:00
8:56 PM,33.8,17.6,52,30.08,10.0,North,10.4,-,N/A,,Clear,10,2013-09-16 04:56:00
9:16 PM,33.8,17.6,52,30.08,10.0,North,8.1,-,N/A,,Clear,10,2013-09-16 05:16:00
9:36 PM,32.0,19.4,60,30.08,10.0,ENE,6.9,-,N/A,,Clear,60,2013-09-16 05:36:00
9:56 PM,30.2,21.2,69,30.08,10.0,East,8.1,-,N/A,,Clear,80,2013-09-16 05:56:00
10:16 PM,30.2,21.2,69,30.08,10.0,ENE,6.9,-,N/A,,Clear,70,2013-09-16 06:16:00
10:36 PM,30.2,21.2,69,30.08,10.0,East,6.9,-,N/A,,Clear,80,2013-09-16 06:36:00
10:56 PM,30.2,21.2,69,30.08,10.0,East,6.9,-,N/A,,Clear,80,2013-09-16 06:56:00
11:16 PM,28.4,21.2,74,30.08,10.0,ENE,8.1,-,N/A,,Clear,70,2013-09-16 07:16:00
11:36 PM,28.4,21.2,74,30.08,10.0,ENE,5.8,-,N/A,,Clear,70,2013-09-16 07:36:00
11:56 PM,28.4,21.2,74,30.08,10.0,NE,4.6,-,N/A,,Clear,50,2013-09-16 07:56:00